RH
75 75 75 74 75 75 75 75 76 73 77 78 79 78 80 81 84 73 26 18 27 58 63 46 58 56 54 55 59 85 90 80 73 81 67 55 58 54 47 49 51 51 50 55 69
73 75 74 74 76 76 74 74 76 77 76 76 80 80 82 82 72 47 32 39 45 68 42 38 48 48 53 53 56 76 81 80 76 75 59 54 53 52 52 56 68 69 66 66 67
78 77 79 77 77 76 76 75 75 77 77 78 79 80 81 80 43 9 49 47 53 60 38 25 36 39 45 42 56 72 75 73 68 65 53 53 55 45 52 58 61 70 70 65 64
79 78 79 80 77 77 76 76 76 76 77 78 79 79 81 77 8 31 56 52 63 36 28 23 31 50 57 46 50 72 68 67 73 66 55 55 48 52 48 54 48 55 59 61 56
80 78 77 77 76 78 77 76 76 77 76 77 77 79 66 31 14 14 67 52 57 25 23 21 33 53 67 54 56 67 63 67 73 63 64 50 52 52 59 54 53 56 57 54 49
79 81 79 79 79 77 77 77 77 76 75 75 74 77 57 18 18 48 41 49 45 22 20 21 35 45 46 46 56 55 61 76 74 68 84 62 59 45 60 52 57 57 55 53 53
80 80 79 79 78 76 77 77 77 78 76 77 74 69 46 16 19 45 36 34 37 22 19 21 30 37 40 42 40 52 73 68 73 70 86 78 74 78 60 51 58 56 55 54 52
80 80 80 80 80 80 80 81 82 80 76 76 72 68 20 14 22 38 22 25 18 16 16 16 21 34 38 33 28 59 57 74 78 74 84 82 88 82 71 55 58 57 57 57 56
83 82 82 81 82 82 84 85 86 80 74 70 68 58 16 35 25 23 18 19 24 16 14 14 15 31 27 25 28 56 70 62 89 83 94 81 96 89 82 59 58 58 56 56 56
84 85 82 83 82 84 87 85 84 81 75 64 58 50 29 22 22 24 19 15 16 15 15 17 21 33 28 24 35 49 62 58 78 90 82 89 83 90 87 77 62 66 56 56 54
86 86 84 84 86 86 77 67 41 39 62 29 24 27 21 20 16 19 16 13 14 16 23 24 33 44 40 24 23 26 40 59 76 79 85 84 75 88 72 76 79 62 57 56 52
92 88 85 86 84 84 76 30 28 29 33 35 39 31 26 22 20 20 18 17 15 16 24 28 32 34 26 24 21 35 49 71 78 82 74 92 88 69 68 67 80 71 56 57 54
92 93 88 88 88 80 51 31 30 27 32 23 29 30 23 21 19 21 18 17 16 25 24 21 24 27 20 23 22 22 31 58 67 74 69 75 93 94 68 69 70 75 62 49 55
92 93 88 91 64 49 38 31 32 32 25 28 18 19 24 22 20 17 16 15 19 20 28 26 24 28 24 23 22 26 24 53 66 54 58 62 66 79 76 72 78 78 74 51 47
92 92 86 87 60 39 30 40 37 24 33 26 20 13 18 16 17 19 16 17 20 24 26 26 26 26 27 20 25 25 27 55 53 65 60 65 66 65 68 76 77 76 66 53 46
92 87 85 81 76 42 43 36 23 24 43 29 24 25 16 19 14 18 18 17 19 22 24 24 19 21 21 21 21 22 49 49 55 58 62 43 43 56 69 64 65 70 68 58 48
93 90 86 65 26 46 40 25 28 41 31 32 32 26 29 27 20 19 21 22 24 31 30 24 22 17 17 19 20 20 31 54 65 52 41 53 55 38 53 53 51 64 66 63 51
91 91 84 66 58 53 29 29 47 39 38 33 31 28 32 34 33 24 23 24 24 25 28 28 25 21 17 18 19 21 22 33 58 51 39 61 51 40 53 56 48 51 54 60 54
94 62 56 44 60 50 26 38 42 40 38 35 30 30 31 33 34 31 27 22 23 22 29 31 28 20 18 16 16 20 22 20 32 39 40 52 50 47 62 61 54 50 56 62 62
68 41 35 51 49 28 30 49 40 40 36 31 35 36 33 38 31 35 34 32 28 27 24 28 29 22 20 18 17 16 15 20 24 44 45 45 56 37 73 73 62 58 56 60 61
44 30 34 43 39 32 39 39 39 34 36 28 33 32 40 41 44 41 40 33 28 29 29 24 25 25 24 23 20 20 19 24 18 25 30 34 42 58 65 79 67 66 61 65 62
36 31 34 35 33 51 42 44 57 33 34 30 32 36 38 44 40 42 45 40 33 29 28 31 25 29 24 25 26 25 20 19 21 34 29 26 31 68 68 74 75 72 70 66 66
41 38 32 29 33 40 41 39 40 32 29 25 26 31 39 39 40 40 40 34 36 30 30 32 35 32 27 26 28 28 29 28 26 30 33 26 25 69 73 86 80 84 81 79 80
36 30 27 36 38 33 38 35 30 29 27 29 30 30 35 36 43 40 33 31 28 31 54 38 37 33 25 31 32 33 29 28 25 22 23 28 35 81 80 88 88 87 83 79 81
42 39 35 33 28 34 34 27 24 24 22 30 35 35 36 34 36 36 31 28 33 43 34 30 41 41 36 33 34 32 28 37 27 26 26 21 40 50 69 77 83 84 91 88 93
46 44 44 39 32 27 38 30 24 25 26 26 29 30 34 37 36 34 31 33 35 31 35 33 42 44 42 36 36 29 28 34 40 29 30 44 38 51 64 74 86 90 90 93 95
61 57 33 54 29 27 29 28 27 26 26 25 27 32 35 30 28 29 27 28 31 34 39 40 43 48 42 42 33 33 32 35 46 47 49 48 51 56 77 84 84 86 84 87 91
Wind_Speed
10 10 10 9 9 8 9 10 10 10 11 11 11 11 11 11 10 2 7 7 7 10 10 12 6 10 6 5 4 3 2 3 6 8 4 9 7 6 7 13 8 3 15 17 17
10 10 10 10 10 10 9 8 8 10 10 11 12 12 11 10 4 9 9 7 10 14 14 16 11 11 5 4 4 4 1 2 4 5 10 9 10 9 9 11 11 17 18 18 18
11 11 11 11 11 10 10 10 9 7 9 11 11 12 10 9 5 4 2 13 12 15 10 9 12 5 3 3 3 1 1 6 10 3 4 13 12 7 15 8 12 23 22 19 18
12 12 11 11 11 11 11 10 10 10 8 8 11 11 11 2 2 3 5 12 13 11 14 11 9 5 3 3 1 3 2 6 1 4 4 12 11 13 4 3 15 21 22 20 18
13 13 12 12 12 11 11 11 11 10 9 9 7 9 3 3 6 6 3 14 14 10 13 10 13 5 4 3 1 5 5 12 9 4 2 9 9 12 6 15 18 19 19 18 15
13 12 12 11 11 11 10 10 10 10 10 8 6 6 3 4 2 5 13 14 13 8 8 12 8 4 4 3 3 3 7 10 5 8 3 6 7 9 6 19 18 18 17 16 15
13 12 12 12 10 9 10 9 9 8 8 7 7 3 2 5 4 8 9 7 8 4 7 2 7 5 3 4 4 6 11 12 4 11 7 6 3 5 12 18 19 17 15 14 13
12 12 11 11 10 10 9 10 9 7 4 4 5 2 5 1 3 10 8 7 6 4 1 4 4 3 3 3 4 7 5 7 8 10 11 7 8 7 7 17 18 17 14 14 13
13 13 12 12 11 11 11 12 9 4 3 4 1 3 1 0 3 7 4 9 8 1 1 3 3 2 3 3 4 1 3 5 8 9 5 5 1 7 10 14 16 16 14 13 13
12 12 12 11 10 10 13 8 6 7 3 5 3 4 3 2 5 7 3 12 4 7 5 4 3 4 2 5 4 4 2 3 10 7 13 12 14 17 13 10 15 15 14 14 14
12 12 12 10 9 8 5 3 3 3 3 5 3 3 4 4 6 3 5 7 5 7 6 4 7 10 9 4 3 3 8 8 12 10 7 4 6 20 18 11 13 15 15 14 16
11 11 12 9 8 7 2 3 3 3 6 5 7 7 6 3 3 7 9 4 7 11 8 6 13 7 4 3 4 6 8 7 9 8 4 6 6 9 18 18 13 13 14 15 13
12 10 13 12 7 2 3 3 3 1 1 2 3 4 1 8 5 11 14 7 9 9 10 12 5 8 5 6 6 3 1 5 7 7 7 11 2 4 16 11 14 8 8 15 16
14 12 13 12 3 1 3 1 2 3 2 7 2 2 4 3 4 6 12 7 4 11 7 6 4 13 5 5 5 3 3 8 15 8 3 6 4 13 15 17 14 15 16 12 17
15 13 12 7 2 3 3 5 3 4 2 9 3 2 1 2 6 5 3 3 9 8 6 5 10 11 7 5 3 2 4 10 8 4 2 7 5 4 18 16 21 19 23 21 13
15 16 10 2 2 4 4 3 3 2 4 4 4 5 3 5 3 6 9 3 3 6 1 3 1 6 7 3 7 7 9 9 5 3 4 2 7 8 13 24 19 19 19 22 19
17 15 4 2 1 5 5 3 0 3 3 6 4 5 4 5 3 2 11 8 4 6 7 3 3 2 2 8 2 6 8 4 2 5 4 2 6 5 8 10 18 23 24 19 21
23 5 4 3 4 8 2 1 4 2 3 3 4 3 5 7 4 3 10 8 3 2 5 7 8 7 6 7 6 11 12 5 6 5 3 2 6 1 3 6 8 17 21 18 19
12 1 1 3 4 4 2 4 2 1 2 5 1 4 4 3 3 1 2 7 5 6 3 5 5 1 6 5 9 6 9 1 3 0 5 2 3 5 3 3 11 18 17 18 18
2 1 5 6 4 1 3 3 0 2 3 1 4 3 5 7 2 2 1 2 2 2 4 6 2 0 3 4 3 6 10 10 4 7 8 4 4 3 5 6 11 17 20 18 18
1 2 5 1 4 4 3 2 2 2 3 3 2 2 2 3 4 3 2 1 0 1 0 6 3 5 3 6 9 6 7 2 6 5 10 7 4 1 6 9 12 13 15 16 17
1 3 3 3 2 2 2 0 2 2 1 1 2 2 3 2 3 3 2 3 2 1 4 1 4 6 6 3 4 2 5 12 8 10 5 8 4 1 3 7 8 9 9 12 14
3 2 1 3 2 3 0 1 2 2 3 1 1 2 1 2 1 2 2 1 3 1 1 2 1 5 6 5 3 2 3 1 2 2 12 13 6 3 5 7 8 11 11 11 11
1 2 2 3 2 1 1 2 2 2 3 2 2 2 2 0 1 1 3 2 4 1 7 2 2 4 6 1 2 4 2 0 5 10 11 8 5 9 11 11 9 9 9 10 10
3 3 2 2 3 4 1 2 2 4 4 8 3 6 2 1 1 1 1 3 2 2 2 1 2 1 3 5 2 1 1 2 7 8 10 11 8 11 15 14 12 10 8 9 8
1 2 2 3 1 1 2 3 4 3 5 5 4 7 1 0 4 4 3 1 2 1 2 2 2 2 3 4 2 4 3 5 1 7 10 7 8 5 14 11 12 12 10 9 7
1 1 1 2 2 0 1 2 3 1 2 1 3 3 1 2 3 5 5 3 2 1 2 0 4 3 5 4 2 6 4 4 3 4 5 7 4 16 17 16 14 11 10 9 8
Wind_Direction
335 333 330 330 328 325 328 331 329 327 328 328 328 325 324 325 317 188 239 220 176 162 145 141 138 146 166 185 177 160 217 169 130 135 161 149 126 63 107 130 67 89 137 133 144
334 331 329 325 324 319 318 319 323 324 323 326 325 324 326 329 290 250 244 203 206 156 145 156 156 156 168 198 215 225 242 137 105 150 157 156 134 127 134 121 96 104 112 134 149
334 331 327 323 320 318 315 315 315 316 319 322 321 322 321 321 274 240 228 199 183 174 149 152 147 162 162 191 207 247 262 148 153 161 145 142 130 126 139 152 161 144 140 149 158
333 330 326 321 318 317 314 310 310 311 314 316 320 318 316 254 164 65 116 173 160 161 149 144 161 130 121 210 289 277 158 133 107 193 113 147 126 132 110 118 152 144 146 153 164
334 333 332 328 324 320 315 311 309 308 307 309 315 318 299 236 260 340 174 157 150 153 158 160 162 142 161 208 309 237 172 144 199 180 53 145 138 136 100 125 138 141 149 159 163
338 334 332 331 326 321 316 312 311 310 308 305 302 305 253 244 23 10 138 141 155 138 148 160 169 141 159 185 204 295 170 124 166 193 73 98 111 144 126 139 145 155 158 164 165
337 338 334 332 329 325 319 311 306 302 305 303 287 262 223 251 3 113 132 135 154 138 149 141 169 174 161 191 187 198 124 132 168 151 141 92 61 86 142 161 155 165 165 167 169
338 337 333 330 326 323 317 304 294 286 274 269 257 256 248 223 358 138 130 97 115 81 208 159 109 210 245 287 178 186 169 154 163 141 140 145 182 212 156 167 166 170 173 174 179
340 340 337 333 331 329 323 309 286 232 170 176 193 292 256 116 201 160 148 140 152 21 25 152 228 231 227 224 149 240 214 166 136 164 124 104 90 208 189 190 176 174 178 181 182
343 340 338 336 333 335 324 308 131 144 172 176 241 254 235 63 135 133 106 142 130 139 130 144 178 208 201 216 191 166 147 143 127 167 111 152 223 181 190 203 196 176 181 187 192
344 344 341 337 333 342 338 149 194 161 202 253 296 292 306 357 142 138 147 125 118 148 156 159 196 203 177 212 115 112 127 156 100 125 88 90 147 161 182 202 203 182 188 195 202
337 340 337 334 321 329 271 245 96 66 306 231 254 265 267 286 129 130 178 134 156 157 145 158 214 192 221 236 183 112 120 83 87 119 105 127 96 184 177 188 187 189 195 200 205
330 329 332 330 300 181 262 242 101 69 256 312 185 233 232 182 178 164 179 145 162 157 178 191 190 167 189 179 192 148 158 150 125 131 85 131 79 211 200 203 185 201 221 205 197
326 332 338 330 197 128 249 31 179 236 3 23 61 123 155 227 123 148 179 147 162 177 173 206 144 171 179 166 207 184 187 129 139 170 129 210 162 216 202 203 190 195 218 209 206
326 332 333 316 333 213 95 326 145 212 107 342 50 104 110 264 124 158 195 170 165 159 199 147 163 169 181 183 142 64 146 129 149 85 200 197 248 133 186 201 207 198 204 211 209
328 331 330 184 223 258 316 304 214 256 68 13 16 349 167 14 70 127 179 109 99 139 176 127 169 188 198 149 169 159 91 98 94 29 252 229 240 168 182 213 205 204 195 204 208
329 321 261 264 65 325 293 187 314 45 324 5 348 0 68 19 73 117 171 181 183 165 172 188 169 149 172 147 162 208 182 128 61 214 263 292 201 272 197 200 208 193 200 199 200
333 347 193 244 313 331 234 99 70 29 3 344 352 29 58 356 54 17 157 184 111 134 164 185 198 198 159 211 179 196 206 213 201 202 197 177 218 189 241 260 234 196 198 189 198
323 96 208 310 242 280 50 58 75 204 330 335 160 62 57 47 358 27 84 185 193 191 220 170 222 211 211 161 198 161 209 310 196 95 237 169 246 230 261 238 185 181 183 180 191
340 332 31 350 157 309 73 94 137 273 324 301 67 18 38 6 29 8 154 140 178 231 286 170 219 115 140 172 127 227 167 196 211 198 222 197 266 237 198 194 180 181 184 182 184
248 103 13 8 277 45 68 60 303 277 278 8 80 74 63 16 18 32 12 96 286 67 245 153 228 141 246 209 195 175 193 194 237 248 225 221 221 90 178 189 196 188 184 177 179
325 90 27 297 27 26 61 226 326 329 56 21 75 77 47 58 18 18 325 298 13 74 188 144 188 227 248 79 336 295 252 223 224 192 242 276 220 66 195 178 195 183 177 178 179
63 85 114 279 36 61 182 290 287 8 26 77 92 6 95 80 28 350 312 326 282 332 144 178 192 194 191 163 146 151 101 60 258 285 209 227 216 135 143 163 186 179 176 168 159
143 114 58 64 36 85 86 25 117 94 52 334 64 129 150 154 109 353 317 314 343 266 95 119 170 248 252 18 9 177 136 292 239 225 221 239 223 191 181 178 173 175 169 172 166
9 82 13 98 71 95 87 353 35 22 23 21 99 37 294 188 150 49 319 303 88 14 74 341 260 250 153 142 146 256 89 281 221 243 236 227 220 197 183 180 173 161 152 158 155
54 151 97 81 331 74 20 42 40 51 6 18 15 349 355 346 356 45 336 42 29 38 57 10 182 193 231 195 231 231 304 339 249 238 256 268 221 191 153 154 154 158 159 159 151
46 64 292 39 73 190 34 95 50 3 132 66 337 303 262 69 292 294 297 290 327 320 114 126 161 171 242 333 220 233 307 316 306 258 281 232 13 161 162 163 161 156 160 157 152